Location: Newark
(23.6000°N, 58.5500°E)
Time: 04:33:39
(UTC+00:00)

Hubble Space Telescope - Visible Passes

Search period start: 25 September 2020 00:00
Search period end: 05 October 2020 00:00
Orbit: 536 x 540 km, 28.5° (Epoch: 24 September)

Date Brightness Start Highest point End Pass type
(mag) Time Alt. Az. Time Alt. Az. Time Alt. Az.
25 Sep 1.0 01:29:24 10° W 01:33:27 58° NNW 01:37:29 10° ENE visible
25 Sep 2.9 23:43:47 25° E 23:43:47 25° E 23:45:35 10° E visible
26 Sep 1.2 01:19:07 12° W 01:22:46 51° N 01:26:47 10° ENE visible
26 Sep 3.4 23:33:46 18° ENE 23:33:46 18° ENE 23:34:55 10° ENE visible
27 Sep 1.4 01:09:06 16° WNW 01:12:07 46° N 01:16:05 10° ENE visible
27 Sep 3.9 23:23:44 13° ENE 23:23:44 13° ENE 23:24:13 10° ENE visible
28 Sep 1.5 00:59:04 21° WNW 01:01:28 43° N 01:05:23 10° ENE visible
29 Sep 1.5 00:49:00 26° NW 00:50:49 41° N 00:54:43 10° ENE visible
30 Sep 1.6 00:38:57 31° NW 00:40:11 40° N 00:44:04 10° ENE visible
01 Oct 1.5 00:28:54 38° NNW 00:29:32 41° N 00:33:26 10° ENE visible
02 Oct 1.5 00:18:52 43° N 00:18:53 43° N 00:22:49 10° ENE visible
03 Oct 1.7 00:08:52 42° NE 00:08:52 42° NE 00:12:11 10° E visible
03 Oct 2.2 23:58:54 35° ENE 23:58:54 35° ENE 00:01:35 10° E visible
04 Oct 0.9 01:34:45 10° WNW 01:38:49 61° SSW 01:42:52 10° ESE visible
04 Oct 2.8 23:48:59 26° E 23:48:59 26° E 23:50:57 10° E visible
